Regional Weather Roundup
Issued by NWS

Home | Current Version | Previous Version | Text Only | Print | Product List | Glossary On
Versions: 1 2 3 4 5 6 7 8 9 10 11 12 13 14 15 16 17 18 19 20 21 22 23 24 25 26 27 28 29 30 31 32 33 34 35 36 37 38 39 40 41 42 43 44 45 46 47 48 49 50
000
ASUS43 KLSX 110507
RWRMO

WEATHER SUMMARY FOR MISSOURI
NATIONAL WEATHER SERVICE SPRINGFIELD MO
1200 AM CDT FRI JUL 11 2014

NOTE: "FAIR" INDICATES FEW OR NO CLOUDS BELOW 12,000 FEET WITH NO
       SIGNIFICANT WEATHER AND/OR OBSTRUCTIONS TO VISIBILITY.
       CURRENT SKY AND/OR WEATHER CONDITIONS ARE NOT AVAILABLE FOR
       CHILLICOTHE AND FARMINGTON.

MOZ001>031-035>038-043-044-053-054-110600-
...NORTHERN AND WESTERN MISSOURI...

CITY           SKY/WX    TMP DP  RH WIND       PRES   REMARKS
KANSAS CTY INT CLEAR     72  65  78 SE9       30.07S
KANSAS C DTWN  CLEAR     75  65  70 SE7       30.06S
LEE`S SUMMIT   CLEAR     72  66  81 SE6       30.08S
ST JOSEPH      CLEAR     72  66  81 SE12      30.06S
CHILLICOTHE      N/A     71  61  70 SE5       30.11S
KIRKSVILLE     CLEAR     66  59  78 SE6       30.14R

$$
MOZ066>068-077>081-088>096-101>105-110600-
...SOUTHWEST MISSOURI...

CITY           SKY/WX    TMP DP  RH WIND       PRES   REMARKS
SPRINGFIELD    PTCLDY    69  65  86 SE8       30.11S
JOPLIN         CLEAR     68  66  93 SE5       30.09R

$$
MOZ032>034-039>042-045>050-055>058-069>072-110600-
...CENTRAL MISSOURI...

CITY           SKY/WX    TMP DP  RH WIND       PRES   REMARKS
COLUMBIA       MOCLDY    68  62  81 SE6       30.13R
JEFFERSON CITY CLEAR     68  63  84 SE5       30.12R
ROLLA          CLEAR     66  62  87 E7        30.13R
SEDALIA        CLEAR     69  64  84 SE6       30.11S
WHITEMAN AFB   CLEAR     69  61  75 SE6       30.10R
OSAGE BEACH      N/A     70  63  78 E5        30.12R VSB<1/4

$$
MOZ051-052-059>065-110600-
...EAST CENTRAL MISSOURI...

CITY           SKY/WX    TMP DP  RH WIND       PRES   REMARKS
ST LOUIS INTL  PTCLDY    71  57  61 E5        30.15R
SPIRIT OF STL  CLEAR     64  60  87 CALM      30.13R
ST CHARLES     CLEAR     64  59  83 E7        30.14R

$$
MOZ072>076-082>087-097>100-106>115-110600-
...SOUTH CENTRAL AND SOUTHEAST MISSOURI...

CITY           SKY/WX    TMP DP  RH WIND       PRES   REMARKS
CAPE GIRARDEAU CLEAR     70  65  84 CALM      30.13S
FARMINGTON       N/A    N/A N/A N/A MISG        N/A
POPLAR BLUFF   CLEAR     70  66  87 NE3       30.11S
WEST PLAINS    MOCLDY    70  66  87 E5        30.15S

$$



USA.gov is the U.S. government's official web portal to all federal, state and local government web resources and services.